When you browse on this site, cookies collect data to enhance your experience and personalize the content and advertising you see.
Visit our Privacy Policy to learn more. By continuing to use the site, you agree to this use of cookies and data.

Meteo orario Bojsi

Oggi, 11 Luglio, Sabato

Tempo Temperatura Precipitazioni Vento Pressione Umidità
00:00 +20°C° 0 mm 2 m/s 690 mm Hg 29%
01:00 +20°C° 0 mm 2 m/s 690 mm Hg 28%
02:00 +19°C° 0 mm 2 m/s 690 mm Hg 28%
03:00 +19°C° 0 mm 2 m/s 690 mm Hg 28%
04:00 +19°C° 0 mm 2 m/s 690 mm Hg 28%
05:00 +22°C° 0 mm 1 m/s 690 mm Hg 26%
06:00 +24°C° 0 mm 1 m/s 691 mm Hg 25%
07:00 +27°C° 0 mm 1 m/s 691 mm Hg 23%
08:00 +29°C° 0 mm 2 m/s 691 mm Hg 22%
09:00 +31°C° 0 mm 2 m/s 691 mm Hg 20%
10:00 +34°C° 0 mm 3 m/s 691 mm Hg 18%
11:00 +35°C° 0 mm 3 m/s 691 mm Hg 17%
12:00 +36°C° 0 mm 3 m/s 690 mm Hg 15%
13:00 +38°C° 0 mm 3 m/s 690 mm Hg 13%
14:00 +38°C° 0 mm 2 m/s 690 mm Hg 13%
15:00 +38°C° 0 mm 2 m/s 689 mm Hg 12%
16:00 +38°C° 0 mm 2 m/s 689 mm Hg 11%
17:00 +36°C° 0 mm 2 m/s 688 mm Hg 16%
18:00 +32°C° 0 mm 2 m/s 688 mm Hg 20%
19:00 +30°C° 0 mm 2 m/s 687 mm Hg 24%
20:00 +28°C° 0 mm 2 m/s 687 mm Hg 24%
21:00 +27°C° 0 mm 2 m/s 687 mm Hg 24%
22:00 +25°C° 0 mm 2 m/s 687 mm Hg 24%
23:00 +24°C° 0 mm 2 m/s 687 mm Hg 32%

Domani, 12 Luglio, Domenica

Tempo Temperatura Precipitazioni Vento Pressione Umidità
00:00 +21°C° 0 mm 3 m/s 687 mm Hg 39%
01:00 +20°C° 0 mm 4 m/s 687 mm Hg 46%
02:00 +19°C° 0 mm 3 m/s 687 mm Hg 48%
03:00 +18°C° 0 mm 3 m/s 688 mm Hg 51%
04:00 +17°C° 0 mm 2 m/s 688 mm Hg 53%
05:00 +19°C° 0 mm 2 m/s 688 mm Hg 50%
06:00 +20°C° 0 mm 2 m/s 689 mm Hg 46%
07:00 +21°C° 0 mm 3 m/s 689 mm Hg 42%
08:00 +24°C° 0 mm 3 m/s 689 mm Hg 36%
09:00 +25°C° 0 mm 3 m/s 689 mm Hg 31%
10:00 +27°C° 0 mm 4 m/s 689 mm Hg 25%
11:00 +28°C° 0 mm 4 m/s 689 mm Hg 24%
12:00 +29°C° 0 mm 4 m/s 688 mm Hg 23%
13:00 +30°C° 0 mm 4 m/s 688 mm Hg 22%
14:00 +30°C° 0 mm 4 m/s 687 mm Hg 22%
15:00 +30°C° 0 mm 4 m/s 687 mm Hg 22%
16:00 +30°C° 0 mm 5 m/s 686 mm Hg 21%
17:00 +29°C° 0 mm 4 m/s 686 mm Hg 26%
18:00 +27°C° 0 mm 3 m/s 686 mm Hg 30%
19:00 +26°C° 0 mm 2 m/s 686 mm Hg 35%
20:00 +25°C° 0 mm 2 m/s 686 mm Hg 37%
21:00 +24°C° 0 mm 2 m/s 686 mm Hg 39%
22:00 +23°C° 0 mm 2 m/s 686 mm Hg 41%
23:00 +21°C° 0 mm 3 m/s 686 mm Hg 41%

Dopodomani, 13 Luglio, Lunedi

Tempo Temperatura Precipitazioni Vento Pressione Umidità
00:00 +20°C° 0 mm 3 m/s 686 mm Hg 41%
01:00 +20°C° 0 mm 4 m/s 686 mm Hg 41%
02:00 +18°C° 0 mm 3 m/s 686 mm Hg 45%
03:00 +17°C° 0 mm 3 m/s 686 mm Hg 48%
04:00 +15°C° 0 mm 2 m/s 686 mm Hg 52%
05:00 +17°C° 0 mm 3 m/s 686 mm Hg 49%
06:00 +18°C° 0 mm 3 m/s 687 mm Hg 47%
07:00 +19°C° 0 mm 4 m/s 687 mm Hg 44%
08:00 +21°C° 0 mm 4 m/s 687 mm Hg 38%
09:00 +23°C° 0 mm 4 m/s 687 mm Hg 32%
10:00 +26°C° 0 mm 5 m/s 687 mm Hg 26%
11:00 +27°C° 0 mm 5 m/s 687 mm Hg 23%
12:00 +28°C° 0 mm 5 m/s 687 mm Hg 20%
13:00 +29°C° 0 mm 5 m/s 687 mm Hg 17%
14:00 +29°C° 0 mm 5 m/s 687 mm Hg 17%
15:00 +29°C° 0 mm 5 m/s 687 mm Hg 17%
16:00 +29°C° 0 mm 5 m/s 687 mm Hg 17%
17:00 +27°C° 0 mm 4 m/s 687 mm Hg 20%
18:00 +25°C° 0 mm 3 m/s 686 mm Hg 24%
19:00 +23°C° 0 mm 2 m/s 686 mm Hg 27%
20:00 +21°C° 0 mm 2 m/s 687 mm Hg 29%
21:00 +19°C° 0 mm 2 m/s 687 mm Hg 30%
22:00 +18°C° 0 mm 2 m/s 687 mm Hg 32%
23:00 +17°C° 0 mm 2 m/s 687 mm Hg 34%

14 Luglio, Martedi

Tempo Temperatura Precipitazioni Vento Pressione Umidità
00:00 +17°C° 0 mm 2 m/s 687 mm Hg 36%
01:00 +16°C° 0 mm 2 m/s 686 mm Hg 38%
02:00 +15°C° 0 mm 1 m/s 686 mm Hg 40%
03:00 +15°C° 0 mm 1 m/s 686 mm Hg 42%
04:00 +14°C° 0 mm 1 m/s 686 mm Hg 44%
05:00 +16°C° 0 mm 1 m/s 687 mm Hg 40%
06:00 +18°C° 0 mm 2 m/s 688 mm Hg 37%
07:00 +20°C° 0 mm 2 m/s 688 mm Hg 33%
08:00 +23°C° 0 mm 2 m/s 688 mm Hg 29%
09:00 +25°C° 0 mm 3 m/s 689 mm Hg 25%
10:00 +27°C° 0 mm 4 m/s 689 mm Hg 22%
11:00 +28°C° 0 mm 4 m/s 689 mm Hg 20%
12:00 +29°C° 0 mm 4 m/s 688 mm Hg 18%
13:00 +30°C° 0 mm 4 m/s 688 mm Hg 16%
14:00 +30°C° 0 mm 4 m/s 688 mm Hg 16%
15:00 +30°C° 0 mm 5 m/s 688 mm Hg 17%
16:00 +30°C° 0 mm 5 m/s 687 mm Hg 18%
17:00 +28°C° 0 mm 4 m/s 687 mm Hg 21%
18:00 +26°C° 0 mm 3 m/s 687 mm Hg 25%
19:00 +24°C° 0 mm 2 m/s 687 mm Hg 29%
20:00 +23°C° 0 mm 2 m/s 687 mm Hg 31%
21:00 +22°C° 0 mm 1 m/s 687 mm Hg 33%
22:00 +20°C° 0 mm 1 m/s 687 mm Hg 35%
23:00 +20°C° 0 mm 1 m/s 687 mm Hg 37%

15 Luglio, Mercoledi

Tempo Temperatura Precipitazioni Vento Pressione Umidità
00:00 +19°C° 0 mm 1 m/s 687 mm Hg 39%
01:00 +18°C° 0 mm 1 m/s 687 mm Hg 42%
02:00 +18°C° 0 mm 1 m/s 686 mm Hg 43%
03:00 +16°C° 0 mm 1 m/s 686 mm Hg 45%
04:00 +16°C° 0 mm 1 m/s 686 mm Hg 47%
05:00 +19°C° 0 mm 1 m/s 687 mm Hg 42%
06:00 +21°C° 0 mm 1 m/s 687 mm Hg 38%
07:00 +23°C° 0 mm 2 m/s 688 mm Hg 34%
08:00 +25°C° 0 mm 2 m/s 688 mm Hg 31%
09:00 +27°C° 0 mm 3 m/s 688 mm Hg 28%
10:00 +28°C° 0 mm 4 m/s 688 mm Hg 25%
11:00 +29°C° 0 mm 4 m/s 688 mm Hg 23%
12:00 +30°C° 0 mm 4 m/s 688 mm Hg 22%
13:00 +32°C° 0 mm 5 m/s 687 mm Hg 20%
14:00 +32°C° 0 mm 5 m/s 687 mm Hg 19%
15:00 +32°C° 0 mm 5 m/s 687 mm Hg 19%
16:00 +32°C° 0 mm 5 m/s 687 mm Hg 19%
17:00 +30°C° 0 mm 4 m/s 687 mm Hg 23%
18:00 +28°C° 0 mm 3 m/s 686 mm Hg 27%
19:00 +26°C° 0 mm 2 m/s 686 mm Hg 31%
20:00 +25°C° 0 mm 2 m/s 686 mm Hg 34%
21:00 +23°C° 0 mm 2 m/s 686 mm Hg 36%
22:00 +21°C° 0 mm 2 m/s 687 mm Hg 38%
23:00 +20°C° 0 mm 2 m/s 686 mm Hg 40%

16 Luglio, Giovedi

Tempo Temperatura Precipitazioni Vento Pressione Umidità
00:00 +20°C° 0 mm 2 m/s 686 mm Hg 41%
01:00 +19°C° 0 mm 2 m/s 686 mm Hg 43%
02:00 +18°C° 0 mm 2 m/s 686 mm Hg 46%
03:00 +19°C° 0 mm 1 m/s 686 mm Hg 50%
04:00 +18°C° 0 mm 1 m/s 686 mm Hg 53%
05:00 +20°C° 0 mm 1 m/s 687 mm Hg 48%
06:00 +22°C° 0 mm 1 m/s 688 mm Hg 43%
07:00 +24°C° 0 mm 1 m/s 688 mm Hg 38%
08:00 +26°C° 0 mm 2 m/s 688 mm Hg 34%
09:00 +28°C° 0 mm 2 m/s 688 mm Hg 31%
10:00 +30°C° 0 mm 3 m/s 689 mm Hg 27%
11:00 +31°C° 0 mm 3 m/s 688 mm Hg 25%
12:00 +33°C° 0 mm 3 m/s 688 mm Hg 23%
13:00 +34°C° 0 mm 3 m/s 688 mm Hg 21%
14:00 +35°C° 0 mm 3 m/s 688 mm Hg 20%
15:00 +35°C° 0 mm 3 m/s 687 mm Hg 20%
16:00 +35°C° 0 mm 4 m/s 687 mm Hg 20%
17:00 +33°C° 0 mm 3 m/s 687 mm Hg 24%
18:00 +30°C° 0 mm 2 m/s 687 mm Hg 28%
19:00 +28°C° 0 mm 2 m/s 686 mm Hg 32%
20:00 +26°C° 0 mm 2 m/s 687 mm Hg 33%
21:00 +25°C° 0 mm 1 m/s 687 mm Hg 35%
22:00 +24°C° 0 mm 1 m/s 687 mm Hg 36%
23:00 +23°C° 0 mm 1 m/s 687 mm Hg 36%
Mostrare altro